This is the latest recevied weather packets stored in our database for station/object OK4PZ-5. If no packets are shown the sender has not sent any weather packets the latest 10 day(s).
| Time | Temp. | Humidity | Pressure | Rain* | Wind** | Luminosity | Snow |
|---|---|---|---|---|---|---|---|
| 1777601702 | -0.56° C | 90% | 1030 hPa | 0 mm | - | - | - |
| 1777599903 | -0.56° C | 91% | 1030 hPa | 0 mm | - | - | - |
| 1777599003 | 0° C | 90% | 1030 hPa | 0 mm | - | - | - |
| 1777598102 | -0.56° C | 87% | 1030 hPa | 0 mm | - | - | - |
| 1777597202 | 0° C | 86% | 1030 hPa | 0 mm | - | - | - |
| 1777596302 | 0° C | 86% | 1030 hPa | 0 mm | - | - | - |
| 1777595403 | 0.56° C | 85% | 1030 hPa | 0 mm | - | - | - |
| 1777594502 | 0.56° C | 83% | 1030 hPa | 0 mm | - | - | - |
| 1777593603 | 0.56° C | 84% | 1030 hPa | 0 mm | - | - | - |
| 1777592703 | 1.11° C | 83% | 1030 hPa | 0 mm | - | - | - |
| 1777591802 | 1.11° C | 83% | 1030 hPa | 0 mm | - | - | - |
| 1777590902 | 1.67° C | 82% | 1030 hPa | 0 mm | - | - | - |
| 1777590001 | 1.67° C | 80% | 1030 hPa | 0 mm | - | - | - |
| 1777589102 | 1.67° C | 78% | 1030 hPa | 0 mm | - | - | - |
| 1777588202 | 1.67° C | 79% | 1030 hPa | 0 mm | - | - | - |
| 1777587303 | 2.22° C | 78% | 1030 hPa | 0 mm | - | - | - |
| 1777585502 | 3.33° C | 76% | 1030 hPa | 0 mm | - | - | - |
| 1777584602 | 2.78° C | 77% | 1030 hPa | 0 mm | - | - | - |
| 1777583702 | 3.33° C | 73% | 1030 hPa | 0 mm | - | - | - |
| 1777582802 | 3.33° C | 74% | 1030 hPa | 0 mm | - | - | - |
| 1777581902 | 3.89° C | 70% | 1030 hPa | 0 mm | - | - | - |
| 1777581002 | 4.44° C | 71% | 1030 hPa | 0 mm | - | - | - |
| 1777580102 | 5° C | 64% | 1030 hPa | 0 mm | - | - | - |
| 1777579203 | 5° C | 65% | 1030 hPa | 0 mm | - | - | - |
| 1777578302 | 5.56° C | 63% | 1030 hPa | 0 mm | - | - | - |
* Rain latest hour (hover to see other rain measurements)
** Current wind speed in m/s (hover to see current wind gust speed)